Flag for Romania Weather past 2 weeks in Bucharest, Romania

Now
55 °F

Passing clouds.


Feels Like: 51 °F
Forecast: 40 / 54 °F
Wind: 21 mph from West

Location: Bucharest / Imh

Current Time: Apr 1, 2015 at 12:36:48 PM

Latest Report: Apr 1, 2015 at 12:00 PM


Visibility: N/A

Pressure: 29.71 "Hg

Humidity: 63%

Dew point: 43 °F

Location of BucharestLocation

Historic Weather in Bucharest — Graph

°F

Bucharest temperature yesterday

Maximum temperature yesterday: 61 °F (at 2:00 PM)
Minimum temperature yesterday: 48 °F (at 3:00 AM)
Average temperature yesterday: 53 °F

Past Weeks' High & Low Weather Summary

 TemperatureHumidityPressure
High66 °F (Mar 26, 3:00 PM)100% (Mar 19, 2:00 AM)30.57 "Hg (Mar 19, 2:00 AM)
Low28 °F (Mar 18, 4:00 AM)25% (Mar 22, 3:30 PM)29.59 "Hg (Apr 1, 1:30 AM)
Average46 °F73%29.99 "Hg
* Reported Mar 17 10:00 AM — Apr 1 11:30 AM, Bucharest, Weather by CustomWeather, © 2015

Note: Actual official high and low records may vary slightly from our data, if they occured in-between our weather recording intervals... More about our weather records

Advertising

Bucharest weather history for previous 24 hours

 ConditionsComfort  
Time TempWeatherWind HumidityBarometerVisibility
11:30 AM
Wed, Apr 1
55 °FPassing clouds.20 mph63%29.68 "HgN/A
11:00 AM55 °FPassing clouds.17 mph63%29.71 "HgN/A
10:30 AM54 °FPassing clouds.17 mph72%29.71 "HgN/A
10:00 AM52 °FPassing clouds.12 mph77%29.71 "HgN/A
9:30 AM50 °FPassing clouds.12 mph88%29.71 "HgN/A
9:00 AM48 °FPassing clouds.6 mph87%29.65 "HgN/A
8:30 AM48 °FPassing clouds.7 mph87%29.65 "HgN/A
8:00 AM48 °FScattered clouds.6 mph87%29.65 "HgN/A
7:30 AM46 °FLight rain. Passing clouds.6 mph100%29.65 "HgN/A
7:00 AM46 °FPassing clouds.5 mph93%29.62 "HgN/A
6:30 AM46 °FSprinkles. Passing clouds.5 mph93%29.62 "HgN/A
6:00 AM46 °FSprinkles. Passing clouds.7 mph93%29.62 "HgN/A
5:30 AM48 °FSprinkles. Passing clouds.3 mph76%29.62 "HgN/A
5:00 AM48 °FSprinkles. Passing clouds.2 mph76%29.62 "HgN/A
4:30 AM48 °FSprinkles. Passing clouds.3 mph71%29.62 "HgN/A
4:00 AM48 °FPassing clouds.3 mph71%29.59 "HgN/A
3:30 AM48 °FPassing clouds.2 mph71%29.59 "HgN/A
3:00 AM50 °FClear.2 mph62%29.59 "Hg10 mi
2:30 AM50 °FPassing clouds.2 mph62%29.59 "HgN/A
2:00 AM50 °FClear.2 mph58%29.59 "Hg10 mi
1:30 AM50 °FClear.No wind62%29.59 "Hg10 mi
1:00 AM50 °FClear.1 mph58%29.62 "Hg10 mi
12:30 AM50 °FClear.1 mph58%29.62 "Hg10 mi
12:00 AM50 °FCool.3 mph58%29.62 "HgN/A
11:30 PM
Tue, Mar 31
50 °FPassing clouds.8 mph58%29.65 "HgN/A
11:00 PM52 °FPassing clouds.3 mph54%29.65 "HgN/A
10:30 PM52 °FClear.8 mph50%29.65 "Hg10 mi
10:00 PM54 °FClear.10 mph47%29.65 "Hg10 mi
9:30 PM54 °FClear.12 mph47%29.65 "Hg10 mi
9:00 PM54 °FPassing clouds.8 mph47%29.65 "HgN/A
8:30 PM54 °FSunny.10 mph47%29.65 "Hg10 mi
8:00 PM54 °FSunny.12 mph47%29.65 "Hg10 mi
7:30 PM55 °FSunny.12 mph44%29.65 "Hg10 mi
7:00 PM55 °FSunny.18 mph44%29.68 "Hg10 mi
6:30 PM57 °FSunny.20 mph41%29.68 "Hg10 mi
6:00 PM59 °FPassing clouds.18 mph34%29.68 "HgN/A
5:30 PM59 °FPassing clouds.20 mph39%29.68 "HgN/A
5:00 PM61 °FPassing clouds.17 mph34%29.68 "HgN/A
4:30 PM61 °FPassing clouds.15 mph29%29.71 "HgN/A
4:00 PM61 °FPassing clouds.15 mph29%29.71 "HgN/A
3:30 PM61 °FPassing clouds.13 mph27%29.71 "HgN/A
3:00 PM61 °FPassing clouds.10 mph31%29.71 "HgN/A
2:30 PM61 °FPassing clouds.5 mph29%29.71 "HgN/A
2:00 PM61 °FScattered clouds.6 mph39%29.74 "HgN/A
1:30 PM59 °FScattered clouds.5 mph55%29.74 "HgN/A
1:00 PM57 °FScattered clouds.3 mph59%29.74 "HgN/A
12:30 PM57 °FPartly sunny.3 mph59%29.77 "HgN/A
12:00 PM57 °FPartly sunny.2 mph63%29.77 "HgN/A
Weather by CustomWeather, © 2015

See weather overviewHow to use our weather pages